Flag for Switzerland Weather past 2 weeks in Altstätten, St. Gallen, Switzerland

Now
70 °F

Sunny.


Feels Like: 70 °F
Forecast: 54 / 76 °F
Wind: 6 mph from West

Location: Saint Gallen-Altenrhein

Current Time: Sep 19, 2014 at 4:25:08 PM

Latest Report: Sep 19, 2014 at 3:50 PM


Visibility: 10 mi

Pressure: 29.98 "Hg

Humidity: 69%

Dew point: 59 °F

Location of AltstättenLocation

Historic Weather in Altstätten — Graph

°F

Altstätten temperature yesterday

Maximum temperature yesterday: 72 °F (at 4:50 PM)
Minimum temperature yesterday: 54 °F (at 4:50 AM)
Average temperature yesterday: 63 °F

Past Weeks' High & Low Weather Summary

 TemperatureHumidityPressure
High77 °F (Sep 7, 5:50 PM)100% (Sep 5, 12:50 AM)30.15 "Hg (Sep 5, 12:50 AM)
Low52 °F (Sep 12, 6:20 AM)44% (Sep 7, 5:50 PM)29.86 "Hg (Sep 17, 5:20 PM)
Average62 °F85%30.00 "Hg
* Reported Sep 4 3:20 PM — Sep 19 3:20 PM, Altstätten, Weather by CustomWeather, © 2014

Note: Actual official high and low records may vary slightly from our data, if they occured in-between our weather recording intervals... More about our weather records

Advertising

Altstätten weather history for previous 24 hours

 ConditionsComfort  
Time TempWeatherWind HumidityBarometerVisibility
3:20 PM
Sep 19
70 °FSunny.6 mph69%29.98 "Hg10 mi
2:50 PM68 °FSunny.7 mph73%29.98 "Hg10 mi
2:20 PM72 °FSunny.7 mph69%29.98 "Hg10 mi
1:50 PM70 °FSunny.5 mph73%29.98 "Hg10 mi
1:20 PM70 °FSunny.6 mph78%29.98 "Hg10 mi
12:50 PM70 °FSunny.6 mph78%29.98 "Hg10 mi
12:20 PM68 °FSunny.3 mph83%29.98 "Hg10 mi
11:50 AM68 °FPassing clouds.3 mph83%29.98 "HgN/A
11:20 AM66 °FScattered clouds.2 mph83%29.98 "HgN/A
10:50 AM64 °FScattered clouds.5 mph88%30.01 "HgN/A
10:20 AM64 °FBroken clouds.8 mph88%30.01 "HgN/A
9:50 AM63 °FBroken clouds.10 mph94%30.01 "HgN/A
9:20 AM64 °FPartly sunny.7 mph88%29.98 "Hg4 mi
8:50 AM64 °FPartly sunny.1 mph88%29.98 "Hg5 mi
8:20 AM63 °FPartly sunny.5 mph94%29.98 "Hg4 mi
7:50 AM61 °FPassing clouds.7 mph94%29.98 "Hg4 mi
7:20 AM61 °FPassing clouds.5 mph94%29.98 "Hg4 mi
6:50 AM59 °FPassing clouds.2 mph100%29.95 "Hg3 mi
6:20 AM59 °FPassing clouds.3 mph100%29.95 "Hg4 mi
5:50 AM59 °FLow clouds.2 mph94%29.95 "Hg4 mi
5:20 AM61 °FLow clouds.6 mph94%29.95 "Hg5 mi
4:50 AM61 °FClear.3 mph94%29.95 "Hg4 mi
4:20 AM59 °FClear.2 mph100%29.95 "Hg3 mi
3:50 AM59 °FClear.2 mph100%29.95 "Hg3 mi
3:20 AM61 °FClear.5 mph94%29.95 "Hg4 mi
2:50 AM63 °FClear.5 mph94%29.95 "Hg6 mi
2:20 AM63 °FClear.6 mph94%29.95 "Hg6 mi
1:50 AM64 °FMostly cloudy.6 mph88%29.95 "HgN/A
1:20 AM63 °FClear.8 mph94%29.95 "Hg10 mi
12:50 AM63 °FClear.7 mph94%29.95 "Hg5 mi
12:20 AM63 °FLight rain. Passing clouds.7 mph94%29.95 "HgN/A
11:50 PM
Sep 18
61 °FClear.3 mph94%29.95 "HgN/A
11:20 PM61 °FClear.2 mph88%29.95 "HgN/A
10:50 PM63 °FClear.3 mph88%29.95 "Hg10 mi
10:20 PM66 °FPassing clouds.5 mph78%29.95 "HgN/A
9:50 PM64 °FClear.6 mph88%29.95 "Hg10 mi
9:20 PM66 °FClear.3 mph73%29.95 "Hg10 mi
8:50 PM64 °FClear.2 mph88%29.95 "Hg10 mi
8:20 PM63 °FSunny.2 mph88%29.92 "Hg10 mi
7:50 PM64 °FSunny.1 mph83%29.95 "Hg10 mi
7:20 PM64 °FSunny.2 mph94%29.95 "Hg10 mi
6:50 PM68 °FSunny.3 mph73%29.95 "Hg10 mi
6:20 PM66 °FSunny.3 mph83%29.95 "Hg10 mi
5:50 PM68 °FSunny.1 mph78%29.92 "Hg10 mi
5:20 PM70 °FSunny.2 mph73%29.92 "Hg10 mi
4:50 PM72 °FSunny.2 mph61%29.92 "Hg10 mi
4:20 PM70 °FSunny.5 mph64%29.92 "Hg10 mi
Weather by CustomWeather, © 2014

See weather overviewHow to use our weather pages